Lander, WY

6:38 PM MST on January 16, 2018 (GMT -0700)
Hunt

Weather History for KLND - January, 2014

Change the Weather History Date:

Wednesday, January 8, 2014

  Actual Average Record
Temperature  
Mean Temperature 14 °F 21 °F  
Max Temperature 21 °F 33 °F 55 °F (2009)
Min Temperature 6 °F 10 °F -26 °F (1937)
Degree Days  
Heating Degree Days 51 44  
Month to date heating degree days 403 352  
Since 1 July heating degree days 3676 3598  
Cooling Degree Days 0 0  
Month to date cooling degree days 0 0  
Year to date cooling degree days 0 0  
Moisture  
Dew Point 10 °F    
Average Humidity 87    
Maximum Humidity 100    
Minimum Humidity 73    
Precipitation  
Precipitation 0.00 in 0.02 in 0.34 in (1962)
Month to date precipitation 0.47 0.12  
Year to date precipitation 0.47 0.12  
Snow  
Snow 0.00 in 0.20 in - ()
Month to date snowfall 7.2 2.1  
Since 1 July snowfall 49.8 37.8  
Snow Depth 4.00 in    
Sea Level Pressure  
Sea Level Pressure 30.13 in    
Wind  
Wind Speed 2 mph (NNW)    
Max Wind Speed 12 mph    
Max Gust Speed 12 mph    
Visibility 8 miles    
Events      
T = Trace of Precipitation, MM = Missing Value Source: NWS Daily Summary

Daily Weather History Graph

Daily Weather History Graph

Search for Another Location

Airport or City:

Trip Planner

Search our weather history database for the weather conditions in past years. The results will help you decide how hot, cold, wet, or windy it might be!

Date:

Astronomy

Jan. 08, 2014 Rise Set
Actual Time 7:45 AM MST 4:58 PM MST
Civil Twilight 7:13 AM MST 5:30 PM MST
Nautical Twilight 6:38 AM MST 6:05 PM MST
Astronomical Twilight 6:03 AM MST 6:39 PM MST
Moon 11:57 AM MST (1/8) 12:49 AM MST (1/8)
Length of Visible Light 10h 16m
Length of Day
9h 13m
First Quarter, 56% of the Moon is Illuminated
Jan 8
First Quarter
Jan 15
Full
Jan 23
Last Quarter
Jan 30
New
Feb 6
First Quarter

Hourly Weather History & Observations

Time (MST) Temp. Windchill Dew Point Humidity Pressure Visibility Wind Dir Wind Speed Gust Speed Precip Events Conditions
12:53 AM 16.0 °F 8.8 °F 12.0 °F 84% 30.14 in 10.0 mi West 4.6 mph - N/A   Clear
1:53 AM 12.0 °F 4.1 °F 10.0 °F 92% 30.16 in 8.0 mi North 4.6 mph - N/A   Clear
2:53 AM 12.0 °F - 10.0 °F 92% 30.18 in 8.0 mi Calm Calm - N/A   Clear
3:53 AM 10.0 °F 0.4 °F 9.0 °F 95% 30.17 in 8.0 mi ESE 5.8 mph - N/A   Clear
4:53 AM 8.1 °F 1.4 °F 6.1 °F 92% 30.17 in 7.0 mi NW 3.5 mph - N/A   Clear
5:53 AM 12.0 °F 4.1 °F 9.0 °F 88% 30.13 in 10.0 mi North 4.6 mph - N/A   Clear
6:53 AM 10.0 °F - 8.1 °F 92% 30.15 in 9.0 mi Calm Calm - N/A   Clear
7:53 AM 8.1 °F -0.5 °F 6.1 °F 92% 30.17 in 6.0 mi North 4.6 mph - N/A   Clear
8:53 AM 10.0 °F 3.6 °F 8.1 °F 92% 30.18 in 6.0 mi North 3.5 mph - N/A   Clear
9:53 AM 12.9 °F - 12.9 °F 100% 30.16 in 7.0 mi Calm Calm - N/A   Clear
10:53 AM 15.1 °F - 9.0 °F 77% 30.16 in 7.0 mi Calm Calm - N/A   Clear
11:53 AM 12.9 °F - 9.0 °F 84% 30.16 in 7.0 mi Calm Calm - N/A   Clear
12:53 PM 15.1 °F - 10.0 °F 80% 30.10 in 7.0 mi Calm Calm - N/A   Clear
1:53 PM 19.0 °F - 12.0 °F 74% 30.09 in 8.0 mi Calm Calm - N/A   Clear
2:53 PM 19.0 °F - 12.0 °F 74% 30.08 in 7.0 mi Calm Calm - N/A   Clear
3:53 PM 17.1 °F - 10.9 °F 77% 30.10 in 6.0 mi Calm Calm - N/A   Haze
4:53 PM 16.0 °F - 10.9 °F 81% 30.11 in 6.0 mi Calm Calm - N/A   Haze
5:53 PM 15.1 °F - 10.0 °F 80% 30.10 in 7.0 mi Calm Calm - N/A   Clear
6:53 PM 14.0 °F 2.9 °F 10.0 °F 84% 30.12 in 8.0 mi WSW 8.1 mph - N/A   Clear
7:53 PM 10.9 °F 2.9 °F 9.0 °F 92% 30.12 in 5.0 mi SE 4.6 mph - N/A   Clear
8:53 PM 10.9 °F - 8.1 °F 88% 30.12 in 7.0 mi Calm Calm - N/A   Clear
9:53 PM 10.9 °F 1.4 °F 9.0 °F 92% 30.10 in 8.0 mi SSE 5.8 mph - N/A   Clear
10:53 PM 14.0 °F 8.2 °F 10.0 °F 84% 30.06 in 9.0 mi SE 3.5 mph - N/A   Clear
11:53 PM 14.0 °F 8.2 °F 10.0 °F 84% 30.06 in 10.0 mi West 3.5 mph - N/A   Clear